| time (UTC) | temp C | wind direction | speed KPH | gust KPH | rain 1hr cm | rain 24hr cm | rain mn cm | humidity % | barometer mb |
| 20260906172903 | 12 | 102 | 0.0 | 0.0 | 0.00 | 0.00 | 0.00 | 64 | |
| 20260906171902 | 12 | 102 | 0.0 | 0.0 | 0.00 | 0.00 | 0.00 | 69 | |
| 20260906170901 | 12 | 102 | 0.0 | 0.0 | 0.00 | 0.00 | 0.00 | 69 | |
| 20260906165901 | 12 | 102 | 0.0 | 3.2 | 0.00 | 0.00 | 0.00 | 74 | |
| 20260906164900 | 12 | 115 | 0.0 | 0.0 | 0.00 | 0.00 | 0.00 | 79 | |
| 20260906163859 | 13 | 115 | 0.0 | 0.0 | 0.00 | 0.00 | 0.00 | 77 | |
| 20260906162900 | 15 | 115 | 0.0 | 0.0 | 0.00 | 0.00 | 0.00 | 70 | |
| 20260906161858 | 16 | 115 | 0.0 | 0.0 | 0.00 | 0.00 | 0.00 | 68 | |
| 20260906160858 | 17 | 115 | 0.0 | 0.0 | 0.00 | 0.00 | 0.00 | 62 | |
| 20260906155857 | 20 | 115 | 0.0 | 0.0 | 0.00 | 0.00 | 0.00 | 48 | |
| 20260906154857 | 22 | 115 | 0.0 | 0.0 | 0.00 | 0.00 | 0.00 | 49 | |
| 20260906153859 | 22 | 115 | 0.0 | 0.0 | 0.00 | 0.00 | 0.00 | 48 | |
| 20260906152856 | 22 | 115 | 0.0 | 0.0 | 0.00 | 0.00 | 0.00 | 48 | |
| 20260906151855 | 22 | 115 | 0.0 | 0.0 | 0.00 | 0.00 | 0.00 | 100 | |
| 20260906150855 | 23 | 115 | 0.0 | 0.0 | 0.00 | 0.00 | 0.00 | 45 | |
| 20260906145854 | 23 | 115 | 0.0 | 0.0 | 0.00 | 0.00 | 0.00 | 44 | |
| 20260906144853 | 24 | 115 | 0.0 | 0.0 | 0.00 | 0.00 | 0.00 | 43 | |
| 20260906142852 | 25 | 115 | 0.0 | 0.0 | 0.00 | 0.00 | 0.00 | 39 | |
| 20260906141851 | 25 | 115 | 0.0 | 0.0 | 0.00 | 0.00 | 0.00 | 43 | |
| 20260906140851 | 25 | 115 | 0.0 | 0.0 | 0.00 | 0.00 | 0.00 | 42 | |
| 20260906135850 | 25 | 115 | 0.0 | 0.0 | 0.00 | 0.00 | 0.00 | 42 | |
| 20260906134850 | 25 | 115 | 0.0 | 0.0 | 0.00 | 0.00 | 0.00 | 43 | |
| 20260906133849 | 25 | 115 | 0.0 | 0.0 | 0.00 | 0.00 | 0.00 | 42 | |
| 20260906132848 | 24 | 98 | 0.0 | 0.0 | 0.00 | 0.00 | 0.00 | 43 | |
| 20260906131848 | 23 | 98 | 0.0 | 1.6 | 0.00 | 0.00 | 0.00 | 44 | |
| 20260906130847 | 23 | 109 | 0.0 | 4.8 | 0.00 | 0.00 | 0.00 | 45 | |
| 20260906125847 | 23 | 106 | 0.0 | 4.8 | 0.00 | 0.00 | 0.00 | 46 | |
| 20260906124846 | 22 | 109 | 0.0 | 4.8 | 0.00 | 0.00 | 0.00 | 48 | |
| 20260906123846 | 22 | 92 | 0.0 | 0.0 | 0.00 | 0.00 | 0.00 | 48 | |
| 20260906122845 | 21 | 92 | 0.0 | 0.0 | 0.00 | 0.00 | 0.00 | 50 | |
| 20260906121845 | 22 | 92 | 0.0 | 0.0 | 0.00 | 0.00 | 0.00 | 50 | |
| 20260906120844 | 21 | 92 | 0.0 | 0.0 | 0.00 | 0.00 | 0.00 | 51 | |
| 20260906115845 | 21 | 97 | 0.0 | 0.0 | 0.00 | 0.00 | 0.00 | 52 | |
| 20260906114843 | 20 | 97 | 0.0 | 0.0 | 0.00 | 0.00 | 0.00 | 53 | |
| 20260906113842 | 20 | 97 | 0.0 | 4.8 | 0.00 | 0.00 | 0.00 | 100 | |
| 20260906112842 | 20 | 97 | 0.0 | 4.8 | 0.00 | 0.00 | 0.00 | 56 | |
| 20260906111841 | 18 | 101 | 1.6 | 3.2 | 0.00 | 0.00 | 0.00 | 60 | |
| 20260906110840 | 17 | 109 | 0.0 | 0.0 | 0.00 | 0.00 | 0.00 | 63 | |
| 20260906105841 | 16 | 95 | 0.0 | 1.6 | 0.00 | 0.00 | 0.00 | 66 | |
| 20260906104839 | 17 | 82 | 0.0 | 0.0 | 0.00 | 0.00 | 0.00 | 65 | |
| 20260906103840 | 16 | 94 | 0.0 | 3.2 | 0.00 | 0.00 | 0.00 | 68 | |
| 20260906102838 | 16 | 92 | 0.0 | 6.4 | 0.00 | 0.00 | 0.00 | 100 | |
| 20260906101837 | 16 | 109 | 1.6 | 3.2 | 0.00 | 0.00 | 0.00 | 69 | |
| 20260906100837 | 15 | 112 | 0.0 | 3.2 | 0.00 | 0.00 | 0.00 | 61 | |
| 20260906095836 | 16 | 102 | 3.2 | 11.3 | 0.00 | 0.00 | 0.00 | 59 | |
| 20260906094836 | 16 | 98 | 1.6 | 12.9 | 0.00 | 0.00 | 0.00 | 62 | |
| 20260906093835 | 16 | 80 | 0.0 | 0.0 | 0.00 | 0.00 | 0.00 | 63 | |
| 20260906092834 | 15 | 80 | 0.0 | 0.0 | 0.00 | 0.00 | 0.00 | 69 | |
| 20260906091834 | 14 | 80 | 0.0 | 8.0 | 0.00 | 0.00 | 0.00 | 71 | |
| 20260906090833 | 15 | 108 | 0.0 | 4.8 | 0.00 | 0.00 | 0.00 | 71 | |
| 20260906085833 | 15 | 122 | 3.2 | 3.2 | 0.00 | 0.00 | 0.00 | 64 | |
| 20260906084832 | 15 | 98 | 0.0 | 0.0 | 0.00 | 0.00 | 0.00 | 68 | |
| 20260906083831 | 16 | 90 | 0.0 | 6.4 | 0.00 | 0.00 | 0.00 | 59 | |
| 20260906082831 | 17 | 95 | 1.6 | 4.8 | 0.00 | 0.00 | 0.00 | 56 | |
| 20260906081831 | 18 | 90 | 0.0 | 1.6 | 0.00 | 0.00 | 0.00 | 51 | |
| 20260906080830 | 19 | 116 | 3.2 | 8.0 | 0.00 | 0.00 | 0.00 | 57 | |
| 20260906075829 | 18 | 97 | 0.0 | 8.0 | 0.00 | 0.00 | 0.00 | 50 | |
| 20260906074828 | 17 | 97 | 1.6 | 12.9 | 0.00 | 0.00 | 0.00 | 50 | |
| 20260906073828 | 16 | 106 | 1.6 | 8.0 | 0.00 | 0.00 | 0.00 | 54 | |
| 20260906072827 | 15 | 101 | 1.6 | 14.5 | 0.00 | 0.00 | 0.00 | 58 | |
| 20260906071827 | 14 | 116 | 6.4 | 19.3 | 0.00 | 0.00 | 0.00 | 62 | |
| 20260906070826 | 13 | 112 | 4.8 | 9.7 | 0.00 | 0.00 | 0.00 | 69 | |
| 20260906064825 | 11 | 142 | 4.8 | 12.9 | 0.00 | 0.00 | 0.00 | 72 | |
| 20260906063824 | 11 | 101 | 4.8 | 16.1 | 0.00 | 0.00 | 0.00 | 75 | |
| 20260906062824 | 11 | 111 | 1.6 | 16.1 | 0.00 | 0.00 | 0.00 | 76 | |
| 20260906060913 | 12 | 109 | 8.0 | 14.5 | 0.00 | 0.00 | 0.00 | 70 | |
| 20260906055916 | 12 | 119 | 6.4 | 20.9 | 0.00 | 0.00 | 0.00 | 68 | |
| 20260906054913 | 12 | 122 | 4.8 | 19.3 | 0.00 | 0.00 | 0.00 | 70 | |
| 20260906053915 | 11 | 113 | 1.6 | 16.1 | 0.00 | 0.00 | 0.00 | 72 | |
| 20260906052911 | 11 | 119 | 1.6 | 19.3 | 0.00 | 0.00 | 0.00 | 75 | |
| 20260906051910 | 10 | 102 | 1.6 | 22.5 | 0.00 | 0.00 | 0.00 | 78 | |
| 20260906050910 | 9 | 111 | 6.4 | 20.9 | 0.00 | 0.00 | 0.00 | 85 | |
| 20260906045910 | 8 | 113 | 4.8 | 17.7 | 0.00 | 0.00 | 0.00 | 85 |